Joplin, MO

1:51 PM CDT on September 24, 2017 (GMT -0500)
Joplin Regional

Weather History for KJLN - September, 2013

Change the Weather History Date:

Monday, September 23, 2013

  Actual Average Record
Temperature  
Mean Temperature 72 °F 68 °F  
Max Temperature 79 °F 79 °F 90 °F (2017)
Min Temperature 64 °F 56 °F 34 °F (1995)
Degree Days  
Heating Degree Days 0 2  
Month to date heating degree days 9 17  
Since 1 July heating degree days 9 18  
Cooling Degree Days 7 5  
Month to date cooling degree days 231 186  
Year to date cooling degree days 1495 1613  
Growing Degree Days 16 (Base 50)    
Moisture  
Dew Point 52 °F    
Average Humidity 63    
Maximum Humidity 83    
Minimum Humidity 42    
Precipitation  
Precipitation 0.00 in 0.15 in 1.68 in (1988)
Month to date precipitation T 3.82  
Year to date precipitation 35.46 34.79  
Snow  
Snow 0.00 in - - ()
Month to date snowfall 0.0  
Snow Depth 0.00 in    
Sea Level Pressure  
Sea Level Pressure 29.88 in    
Wind  
Wind Speed 8 mph (SE)    
Max Wind Speed 17 mph    
Max Gust Speed 23 mph    
Visibility 10 miles    
Events      
T = Trace of Precipitation, MM = Missing Value Source: NWS Daily Summary

Daily Weather History Graph

Daily Weather History Graph

Search for Another Location

Airport or City:

Trip Planner

Search our weather history database for the weather conditions in past years. The results will help you decide how hot, cold, wet, or windy it might be!

Date:

Astronomy

Sep. 23, 2013 Rise Set
Actual Time 7:06 AM CDT 7:12 PM CDT
Civil Twilight 6:40 AM CDT 7:38 PM CDT
Nautical Twilight 6:10 AM CDT 8:09 PM CDT
Astronomical Twilight 5:39 AM CDT 8:39 PM CDT
Moon 9:52 PM CDT (9/23) 11:20 AM CDT (9/23)
Length of Visible Light 12h 57m
Length of Day
12h 06m
Waning Gibbous, 81% of the Moon is Illuminated
Sep 23
Waning Gibbous
Sep 26
Last Quarter
Oct 4
New
Oct 11
First Quarter
Oct 18
Full

Hourly Weather History & Observations

Time (CDT) Temp. Dew Point Humidity Pressure Visibility Wind Dir Wind Speed Gust Speed Precip Events Conditions
12:53 AM 59.0 °F 51.1 °F 75% 29.88 in 10.0 mi SE 5.8 mph - N/A   Clear
1:53 AM 57.9 °F 51.1 °F 78% 29.89 in 10.0 mi SE 6.9 mph - N/A   Clear
2:53 AM 57.0 °F 50.0 °F 77% 29.89 in 10.0 mi SE 6.9 mph - N/A   Clear
3:53 AM 55.0 °F 50.0 °F 83% 29.90 in 10.0 mi SE 4.6 mph - N/A   Clear
4:53 AM 54.0 °F 48.9 °F 83% 29.90 in 10.0 mi SE 3.5 mph - N/A   Clear
5:53 AM 53.1 °F 48.9 °F 86% 29.91 in 10.0 mi SE 4.6 mph - N/A   Clear
6:53 AM 53.1 °F 48.9 °F 86% 29.92 in 10.0 mi SE 4.6 mph - N/A   Clear
7:53 AM 55.9 °F 50.0 °F 80% 29.92 in 10.0 mi SE 5.8 mph - N/A   Clear
8:53 AM 62.1 °F 51.1 °F 67% 29.92 in 10.0 mi SE 9.2 mph - N/A   Clear
10:53 AM 70.0 °F 53.1 °F 55% 29.95 in 10.0 mi South 12.7 mph - N/A   Clear
11:53 AM 72.0 °F 53.1 °F 51% 29.94 in 10.0 mi SSW 12.7 mph 23.0 mph N/A   Clear
12:53 PM 73.0 °F 53.1 °F 49% 29.91 in 10.0 mi SSE 9.2 mph - N/A   Clear
1:53 PM 75.0 °F 53.1 °F 46% 29.87 in 10.0 mi SE 11.5 mph - N/A   Clear
2:53 PM 77.0 °F 53.1 °F 43% 29.84 in 10.0 mi SE 12.7 mph 18.4 mph N/A   Clear
3:53 PM 78.1 °F 53.1 °F 42% 29.82 in 10.0 mi SE 13.8 mph 19.6 mph N/A   Clear
4:53 PM 78.1 °F 53.1 °F 42% 29.82 in 10.0 mi SSE 11.5 mph - N/A   Clear
5:53 PM 77.0 °F 53.1 °F 43% 29.82 in 10.0 mi SE 9.2 mph - N/A   Clear
6:53 PM 73.9 °F 55.0 °F 52% 29.83 in 10.0 mi SE 8.1 mph - N/A   Clear
7:53 PM 70.0 °F 55.0 °F 59% 29.84 in 10.0 mi SE 5.8 mph - N/A   Clear
8:53 PM 66.9 °F 55.0 °F 66% 29.87 in 10.0 mi SE 3.5 mph - N/A   Clear
9:53 PM 64.9 °F 55.9 °F 73% 29.87 in 10.0 mi SSE 5.8 mph - N/A   Scattered Clouds
10:53 PM 64.9 °F 54.0 °F 68% 29.86 in 10.0 mi SSE 8.1 mph - N/A   Partly Cloudy
11:53 PM 66.9 °F 54.0 °F 63% 29.86 in 10.0 mi SSE 8.1 mph - N/A   Overcast